Weather History for Wisconsin Rapids, WI

Change the Weather History Date:

Tuesday, December 11, 2012

  Actual Average Record
Temperature  
Mean Temperature 20 °F -  
Max Temperature 23 °F 30 °F 50 °F (1949)
Min Temperature 17 °F 11 °F -20 °F (1972)
Degree Days  
Heating Degree Days 45    
Moisture  
Dew Point 16 °F    
Average Humidity 83    
Maximum Humidity 93    
Minimum Humidity 74    
Precipitation  
Precipitation 0.00 in - - ()
Sea Level Pressure  
Sea Level Pressure 29.95 in    
Wind  
Wind Speed 7 mph (SW)    
Max Wind Speed 15 mph    
Max Gust Speed 20 mph    
Visibility 8 miles    
Events Snow    
Averages and records for this station are not official NWS values.
T = Trace of Precipitation, MM = Missing Value Source: NWS Daily Summary

Daily Weather History Graph

Daily Weather History Graph

Search for Another Location

Airport:

Trip Planner

Search our weather history database for the weather conditions in past years. The results will help you decide how hot, cold, wet, or windy it might be!

Date:

Astronomy

Dec. 11, 2012 Rise Set
Actual Time 7:25 AM CST 4:20 PM CST
Civil Twilight 6:52 AM CST 4:53 PM CST
Nautical Twilight 6:15 AM CST 5:29 PM CST
Astronomical Twilight 5:40 AM CST 6:05 PM CST
Moon 5:18 AM CST (12/11) 3:00 PM CST (12/11)
Length of Visible Light 10h 00m
Length of Day
8h 54m
Waning Crescent, 4% of the Moon is Illuminated
Dec 11
Waning Crescent
Dec 13
New
Dec 19
First Quarter
Dec 28
Full
Jan 4
Last Quarter

Hourly Weather History & Observations

Time (CST) Temp. Windchill Dew Point Humidity Pressure Visibility Wind Dir Wind Speed Gust Speed Precip Events Conditions
12:54 AM 21.0 °F 14.6 °F 18.0 °F 88% 29.94 in 10.0 mi SW 4.6 mph - N/A   Overcast
1:54 AM 19.9 °F 11.1 °F 16.0 °F 85% 29.94 in 8.0 mi SW 6.9 mph - N/A   Overcast
2:54 AM 19.0 °F 9.0 °F 16.0 °F 88% 29.94 in 7.0 mi WSW 8.1 mph - N/A   Overcast
3:54 AM 19.0 °F 9.0 °F 16.0 °F 88% 29.93 in 9.0 mi SSW 8.1 mph - N/A   Overcast
4:54 AM 19.0 °F 10.0 °F 16.0 °F 88% 29.92 in 10.0 mi SW 6.9 mph - N/A   Overcast
5:54 AM 18.0 °F 11.1 °F 15.1 °F 88% 29.92 in 10.0 mi South 4.6 mph - N/A   Overcast
6:11 AM 17.6 °F 9.3 °F 15.8 °F 93% 29.86 in 10.0 mi South 5.8 mph - N/A   Overcast
6:54 AM 18.0 °F 11.1 °F 15.1 °F 88% 29.91 in 10.0 mi South 4.6 mph - N/A   Overcast
8:54 AM 19.0 °F 11.1 °F 14.0 °F 81% 29.91 in 10.0 mi South 5.8 mph - N/A   Overcast
9:54 AM 19.9 °F 6.2 °F 12.9 °F 74% 29.91 in 4.0 mi SSW 15.0 mph 19.6 mph 0.00 in Snow Light Snow
10:46 AM 19.4 °F 7.2 °F 14.0 °F 80% 29.86 in 3.0 mi SW 11.5 mph - 0.00 in Snow Light Snow
10:54 AM 19.9 °F 8.6 °F 14.0 °F 78% 29.92 in 3.0 mi SW 10.4 mph - 0.00 in Snow Light Snow
11:01 AM 19.4 °F 7.2 °F 15.8 °F 86% 29.86 in 2.5 mi SW 11.5 mph - 0.00 in Snow Light Snow
11:15 AM 19.4 °F 7.9 °F 15.8 °F 86% 29.86 in 3.0 mi SW 10.4 mph - 0.00 in Snow Light Snow
11:54 AM 21.0 °F 9.9 °F 15.1 °F 78% 29.91 in 7.0 mi WSW 10.4 mph - 0.00 in Snow Light Snow
12:54 PM 21.0 °F 9.9 °F 15.1 °F 78% 29.91 in 10.0 mi WSW 10.4 mph - N/A   Overcast
1:54 PM 21.9 °F 12.5 °F 15.1 °F 75% 29.92 in 10.0 mi West 8.1 mph 18.4 mph N/A   Overcast
2:54 PM 21.9 °F 10.4 °F 15.1 °F 75% 29.93 in 10.0 mi SW 11.5 mph - N/A   Overcast
3:37 PM 21.2 °F 12.6 °F 15.8 °F 80% 29.89 in 10.0 mi WSW 6.9 mph 18.4 mph N/A   Overcast
3:54 PM 21.9 °F 12.5 °F 16.0 °F 78% 29.94 in 10.0 mi SW 8.1 mph - N/A   Overcast
4:36 PM 23.0 °F 12.4 °F 17.6 °F 80% 29.91 in 10.0 mi WSW 10.4 mph - N/A   Overcast
4:54 PM 21.9 °F 12.5 °F 17.1 °F 82% 29.97 in 6.0 mi SW 8.1 mph - 0.00 in Snow Light Snow
5:54 PM 21.9 °F 11.7 °F 18.0 °F 85% 29.98 in 8.0 mi SW 9.2 mph - 0.00 in   Overcast
6:54 PM 21.9 °F 12.5 °F 17.1 °F 82% 30.00 in 6.0 mi WSW 8.1 mph - 0.00 in Snow Light Snow
7:54 PM 21.9 °F 11.7 °F 17.1 °F 82% 30.02 in 10.0 mi WSW 9.2 mph - 0.00 in   Overcast
8:54 PM 21.0 °F 14.6 °F 17.1 °F 85% 30.03 in 10.0 mi WSW 4.6 mph - N/A   Overcast
9:39 PM 21.2 °F 14.9 °F 17.6 °F 86% 30.00 in 10.0 mi West 4.6 mph - N/A   Mostly Cloudy
9:54 PM 19.9 °F 12.1 °F 17.1 °F 89% 30.06 in 10.0 mi West 5.8 mph - N/A   Mostly Cloudy
10:20 PM 19.4 °F 12.8 °F 15.8 °F 86% 30.01 in 9.0 mi West 4.6 mph - N/A   Mostly Cloudy
10:54 PM 19.9 °F 13.4 °F 15.1 °F 81% 30.08 in 10.0 mi WSW 4.6 mph - N/A   Scattered Clouds
11:54 PM 19.0 °F 13.9 °F 16.0 °F 88% 30.11 in 7.0 mi WSW 3.5 mph - N/A   Mostly Cloudy